Regional Weather Roundup
Issued by NWS

Home | Current Version | Previous Version | Graphics & Text | Print | Product List | Glossary On
Versions: 1 2 3 4 5 6 7 8 9 10 11 12 13 14 15 16 17 18 19 20 21 22 23 24 25 26 27 28 29 30 31 32 33 34 35 36 37 38 39 40 41 42 43 44 45 46 47 48 49 50
356
ASUS45 KSLC 102310
RWRUT

UTAH REGIONAL WEATHER ROUNDUP
NATIONAL WEATHER SERVICE SALT LAKE CITY UT
400 PM MST WED FEB 10 2016

UTZ001>011-023>025-110000-

NORTHERN UTAH

CITY           SKY/WX    TMP DP  RH WIND       PRES   REMARKS
BRIGHAM CITY   CLOUDY    29  27  93 CALM      30.47S
DUGWAY         CLOUDY    31  31  99 NW1       30.45  FOG
HILL AFB       NOT AVBL
LOGAN          CLOUDY    22  20  92 CALM      30.45S FOG
OGDEN          CLOUDY    29  27  92 NW6       30.43S FOG     WCI  23
PROVO AIRPORT  SUNNY     28  21  74 SW7       30.42F HAZE    WCI  21
SALT LAKE CITY CLOUDY    31  28  89 N6        30.44S FOG     WCI  25
VERNAL         CLOUDY    28  18  66 E7        30.36S WCI  21
WENDOVER       CLOUDY    32  27  80 SE3       30.45S
HEBER CITY     SUNNY     36  23  60 CALM      30.37S
WEST JORDAN    MOSUNNY   34  28  80 NW10      30.44R WCI  26

$$

UTZ012>022-026-027-110000-

SOUTHERN/CENTRAL UTAH

CITY           SKY/WX    TMP DP  RH WIND       PRES   REMARKS
BLANDING       MOSUNNY   44  28  55 CALM      30.44S
BRYCE CANYON   SUNNY     50  13  22 NW15G21   30.40S
CEDAR CITY     SUNNY     42  28  57 NW6       30.34F
DELTA          MOSUNNY   23  21  93 CALM      30.42F
HANKSVILLE     SUNNY     45  32  61 CALM      30.41R
MILFORD        MOSUNNY   25  19  78 N7        30.39R WCI  17
MOAB/CYNLANDS  MOSUNNY   39  29  67 NW7       30.37F WCI  34
PRICE          SUNNY     41  23  48 CALM      30.36F
ST GEORGE      CLEAR     63  27  25 SW6       30.28F
KANAB          SUNNY     66  23  19 S6        30.34F

$$

REGIONAL REPORTS     COLORADO/ARIZONA

CITY           SKY/WX    TMP DP  RH WIND       PRES   REMARKS
CRAIG, CO      CLOUDY    24  19  81 CALM      30.34S
GRAND JUNCTION SUNNY     36  29  75 N6        30.37S WCI  31
RIFLE          CLOUDY    39  21  48 SE3       30.35F
MONTROSE       SUNNY     46  23  40 N5        30.36F
CORTEZ         CLOUDY    51  24  34 E6        30.37S
PAGE, AZ       SUNNY     53  28  38 VRB5      30.33F
GRAND CANYON   MOSUNNY   64   4   9 VRB5      30.38F
KINGMAN        MOSUNNY   72  22  15 N3        30.24F
FLAGSTAFF      MOSUNNY   62   6  11 VRB3      30.38F

$$

REGIONAL REPORTS    NEVADA/IDAHO/WYOMING

CITY           SKY/WX    TMP DP  RH WIND       PRES   REMARKS
LAS VEGAS, NV  MOSUNNY   72  23  16 N3        30.19F
ELY            SUNNY     40  26  57 S5        30.37S
ELKO           SUNNY     31  19  61 E3        30.43S
POCATELLO, ID  SUNNY     36  26  67 N3        30.39F
BURLEY         SUNNY     42  32  67 NW5       30.36R
EVANSTON, WY   CLOUDY    39  21  48 SW12      30.37S WCI  32
ROCK SPRINGS   CLOUDY    40  19  43 W23       30.28F WCI  30
KEMMERER       CLOUDY    37  21  52 CALM      30.36S

$$




USA.gov is the U.S. government's official web portal to all federal, state and local government web resources and services.